Tracking 23764 objects as of 17-Oct-2021
HD Live streaming from Space Station
objects crossing your sky now

IRIDIUM 33 DEB

Track IRIDIUM 33 DEB now!
10-day predictions


NORAD ID: 34535
Int'l Code: 1997-051JC
Perigee: 608.8 km
Apogee: 634.8 km
Inclination: 86.3 °
Period: 97.0 minutes
Semi major axis: 6992 km
RCS: 0.032 m2 (small)
Launch date: September 14, 1997
Source: United States (US)
Launch site: TYURATAM MISSILE AND SPACE COMPLEX (TTMTR)

Note: This is SATELLITE DEBRIS
aabbcc
Your satellite tracking list
Your tracking list is empty




NASA's NSSDC Master Catalog

Two Line Element Set (TLE):
1 34535U 97051JC  21290.26806111  .00007368  00000-0  86540-3 0  9991
2 34535  86.3323 231.2378 0018613 229.0425 130.9189 14.84664656674420
Source of the keplerian elements: AFSPC